Regional Weather Roundup
Issued by NWS Albany, NY

Home | Current Version | Previous Version | Text Only | Print | Product List | Glossary On
Versions: 1 2 3 4 5 6 7 8 9 10 11 12 13 14 15 16 17 18 19 20 21 22 23 24 25 26 27 28 29 30 31 32 33 34 35 36 37 38 39 40 41 42 43 44 45 46 47 48 49
000
ASUS41 KALY 141310
RWRALY

NEW YORK STATE HOURLY WEATHER ROUNDUP
NATIONAL WEATHER SERVICE ALBANY NY
900 AM EDT MON JUL 14 2014

NOTE: "FAIR" INDICATES FEW OR NO CLOUDS BELOW 12,000 FEET WITH NO
SIGNIFICANT WEATHER AND/OR NO OBSTRUCTIONS TO VISIBILITY.

NYZ032-033-038>043-046>054-057>066-NYZ062>081-141400-
EAST


CITY           SKY/WX    TMP DP  RH WIND       PRES   REMARKS
ALBANY         MOSUNNY   75  69  81 S5        29.91R
GLENS FALLS    CLOUDY    70  69  97 S7        29.90R FOG
POUGHKEEPSIE   MOSUNNY   75  69  81 W3        29.91R
NEWBURGH       MOSUNNY   73  72  94 W7        29.94R
MONTGOMERY     MOSUNNY   75  70  84 S5        29.92S
WHITE PLAINS   PTSUNNY   74  70  87 CALM      29.93S FOG
ISLIP          PTSUNNY   79  69  71 SW6       29.92S
NEW YORK CITY  CLOUDY    76  69  79 W5        29.92S
CENTRAL PARK     N/A     72  72 100 MISG        N/A
$$

NYZ005>009-017-018-044>046-055-056-141400-
CENTRAL


CITY           SKY/WX    TMP DP  RH WIND       PRES   REMARKS
FULTON         CLOUDY    70  62  76 NW3       29.90S
SYRACUSE       PTSUNNY   75  67  76 W7        29.89S
ROME           CLOUDY    72  68  87 SW5       29.90S
ELMIRA         SUNNY     69  68  96 SW5       29.92S
BINGHAMTON     CLOUDY    70  66  88 W5        29.95S
MONTICELLO     PTSUNNY   70  68  94 CALM      29.98R
$$

NYZ026>034-041>043-141400-
NORTH


CITY           SKY/WX    TMP DP  RH WIND       PRES   REMARKS
WATERTOWN      CLOUDY    70  57  63 SW3       29.89S
FORT DRUM      NOT AVBL
MASSENA        PTSUNNY   68  59  73 SW7       29.88S
SARANAC LAKE   MOSUNNY   68  56  65 SW7       29.91R
PLATTSBURGH    SUNNY     75  63  66 VRB3      29.86S
$$

NYZ001>004-010>016-019>021-141400-
WEST


CITY           SKY/WX    TMP DP  RH WIND       PRES   REMARKS
NIAGARA FALLS  CLOUDY    68  56  65 E7        29.88F
BUFFALO        PTSUNNY   69  56  62 E8        29.89F
DUNKIRK        MOSUNNY   72  64  76 S7        29.88F
JAMESTOWN      CLOUDY    66  64  94 S6        29.93S
WELLSVILLE     MOSUNNY   68  63  84 SW7       29.97S
ROCHESTER      PTSUNNY   69  54  58 CALM      29.91F
PENN YAN       PTSUNNY   72  67  84 CALM      29.92S
$$

             KEY
       WCI = WIND CHILL INDEX
       VSB = VISIBILITY
       HX  = HEAT INDEX
$$



USA.gov is the U.S. government's official web portal to all federal, state and local government web resources and services.